CAPE
10 6 7 5 6 5 6 6 2 4 4 2 1 0 0 0 0 0 0 0 10 34 24 28 24 24 13 14 14 17 16 9 6
4 6 5 4 2 4 5 3 1 1 3 2 0 0 0 0 0 0 0 0 12 11 6 11 9 27 33 20 8 5 4 3 2
2 4 2 3 2 2 1 0 0 0 0 0 0 0 0 0 0 0 0 11 8 27 12 31 17 37 33 35 32 24 9 5 6
0 0 0 0 0 0 0 0 0 0 0 0 0 0 0 0 0 0 0 9 14 17 24 32 41 41 35 9 30 9 15 12 11
0 0 0 0 0 0 0 0 0 0 0 0 0 0 0 0 0 0 0 3 11 1 5 24 20 7 7 9 9 18 10 15 13
0 0 0 0 0 0 0 0 0 0 0 0 0 0 0 0 0 0 0 1 5 13 11 4 4 6 10 5 18 4 20 13 6
0 0 0 0 0 0 0 0 0 0 0 0 0 0 0 0 0 0 0 0 3 4 8 11 11 14 14 5 13 12 24 9 38
0 0 0 0 0 0 0 0 0 0 0 0 0 0 0 0 0 0 0 0 2 4 5 8 10 12 15 9 15 16 20 28 31
0 0 0 0 0 0 0 0 0 0 0 0 0 0 0 0 0 0 0 0 0 4 7 9 11 12 10 8 12 13 20 22 29
0 0 0 0 0 0 0 0 0 0 0 0 0 0 0 0 0 0 0 0 0 0 2 5 10 13 10 8 6 13 21 9 20
0 0 0 0 0 0 0 0 0 0 0 0 0 0 0 0 0 0 0 0 0 0 0 2 5 8 9 7 9 8 8 17 23
0 0 0 0 0 0 0 0 0 0 0 0 0 0 0 0 0 0 0 0 0 0 0 0 1 2 3 8 8 8 5 30 16
0 0 0 0 0 0 0 0 0 0 0 0 0 0 0 0 0 0 0 0 0 0 0 0 0 0 2 5 6 6 10 9 12
0 0 0 0 0 0 0 0 0 0 0 0 0 0 0 0 0 0 0 0 0 0 0 0 0 0 1 3 5 8 8 5 7
0 0 0 0 0 0 0 0 0 0 0 0 0 0 0 0 0 0 0 0 0 0 0 0 0 0 0 1 3 9 11 10 13
0 0 0 0 0 0 0 0 0 0 0 0 0 0 0 0 0 0 0 0 0 0 0 0 0 0 0 0 1 4 8 7 28
0 0 0 0 0 0 0 0 0 0 0 0 0 0 0 0 0 0 0 0 0 0 0 0 0 0 0 0 0 0 3 9 21
0 0 0 0 0 0 0 0 0 0 0 0 0 0 0 0 0 0 0 0 0 0 0 0 0 0 0 0 0 0 7 12 21
0 0 0 0 0 0 0 0 0 0 0 0 0 0 0 0 0 0 0 0 0 0 0 0 0 0 0 0 0 2 6 3 3
0 0 0 0 0 0 0 0 0 0 0 0 0 0 0 0 0 0 0 0 0 0 0 0 0 0 0 0 0 5 5 7 7
CIN
0 0 0 0 0 -1 0 -1 0 0 0 0 0 0 0 0 0 0 0 0 -1 -1 0 0 -2 0 0 0 -1 -3 -1 -1 -1
-1 0 0 0 0 0 0 -1 -1 0 0 0 0 0 0 0 0 0 0 0 0 -1 -1 0 -1 -2 -1 0 -2 -3 0 -2 -2
0 0 -1 -1 0 0 0 0 0 0 0 0 0 0 0 0 0 0 0 -2 -1 -1 -1 0 -2 -1 -2 0 -1 -1 -1 -3 -3
0 0 0 0 0 0 0 0 0 0 0 0 0 0 0 0 0 0 0 -1 -2 -2 -1 0 -1 0 0 -2 -1 -1 0 0 -1
0 0 0 0 0 0 0 0 0 0 0 0 0 0 0 0 0 0 0 0 0 -1 -2 -1 -1 -2 -3 -1 -1 -1 0 -1 -1
0 0 0 0 0 0 0 0 0 0 0 0 0 0 0 0 0 0 0 0 -1 0 0 0 0 -1 -1 -1 -1 0 -1 -1 -1
0 0 0 0 0 0 0 0 0 0 0 0 0 0 0 0 0 0 0 0 -1 0 -1 -1 0 -1 0 0 -1 -1 -1 -1 -1
0 0 0 0 0 0 0 0 0 0 0 0 0 0 0 0 0 0 0 0 -1 -1 0 -1 0 -1 -1 0 -1 -2 0 -1 0
0 0 0 0 0 0 0 0 0 0 0 0 0 0 0 0 0 0 0 0 0 0 -1 0 -1 -1 0 0 -1 -1 -1 -1 -1
0 0 0 0 0 0 0 0 0 0 0 0 0 0 0 0 0 0 0 0 0 0 -1 -1 0 0 0 -1 -1 -1 -1 -1 -1
0 0 0 0 0 0 0 0 0 0 0 0 0 0 0 0 0 0 0 0 0 0 0 0 0 -1 -1 -1 0 -2 -2 -1 -1
0 0 0 0 0 0 0 0 0 0 0 0 0 0 0 0 0 0 0 0 0 0 0 0 -1 0 0 0 -1 -1 -1 -1 -1
0 0 0 0 0 0 0 0 0 0 0 0 0 0 0 0 0 0 0 0 0 0 0 0 0 0 0 0 -1 -1 -1 -1 -1
0 0 0 0 0 0 0 0 0 0 0 0 0 0 0 0 0 0 0 0 0 0 0 0 0 0 0 -1 0 -1 -1 0 0
0 0 0 0 0 0 0 0 0 0 0 0 0 0 0 0 0 0 0 0 0 0 0 0 0 0 0 -1 -1 -1 0 -1 0
0 0 0 0 0 0 0 0 0 0 0 0 0 0 0 0 0 0 0 0 0 0 0 0 0 0 0 0 -1 -1 0 -1 0
0 0 0 0 0 0 0 0 0 0 0 0 0 0 0 0 0 0 0 0 0 0 0 0 0 0 0 0 0 0 0 0 0
0 0 0 0 0 0 0 0 0 0 0 0 0 0 0 0 0 0 0 0 0 0 0 0 0 0 0 0 0 0 -1 -1 0
0 0 0 0 0 0 0 0 0 0 0 0 0 0 0 0 0 0 0 0 0 0 0 0 0 0 0 0 0 0 -1 -1 0
0 0 0 0 0 0 0 0 0 0 0 0 0 0 0 0 0 0 0 0 0 0 0 0 0 0 0 0 0 -1 0 -1 0
Wind_Speed
28 29 29 29 29 29 28 29 30 31 30 30 29 27 26 24 23 22 23 24 25 24 24 24 25 26 25 26 25 25 25 25 26
27 28 28 28 29 29 29 29 28 27 30 30 28 28 26 25 23 23 24 25 25 25 24 25 25 26 26 26 26 27 27 28 28
27 27 27 28 28 28 29 29 29 29 30 30 28 26 25 19 17 25 24 25 26 26 25 26 26 26 26 27 27 28 28 28 29
26 27 27 28 28 28 28 28 28 28 29 28 24 2 21 8 16 22 14 19 24 24 26 26 26 27 27 27 28 29 30 31 31
24 26 26 27 27 27 27 27 27 27 27 26 22 26 25 27 26 26 19 22 24 26 27 27 27 27 28 29 29 30 31 31 32
22 22 23 25 25 27 27 27 26 26 24 24 26 27 28 28 26 28 27 26 26 28 27 28 28 29 29 30 30 31 31 32 33
17 18 19 20 25 25 26 26 25 26 25 26 27 28 28 28 26 28 28 28 28 29 29 29 29 29 30 30 31 31 32 33 33
17 17 19 18 21 22 24 25 26 25 25 26 27 28 28 28 26 27 28 29 29 29 29 29 30 30 30 31 32 32 32 33 34
15 16 16 17 18 22 23 23 25 26 26 26 27 27 28 28 27 27 28 29 29 30 30 30 31 31 31 31 32 33 33 33 33
13 15 15 15 18 19 18 20 20 23 25 24 26 26 26 26 27 27 28 29 29 30 30 31 31 32 32 32 33 34 35 35 35
13 13 14 15 16 13 13 15 18 17 21 23 22 23 24 25 26 27 28 29 30 30 30 31 31 31 32 33 34 35 36 36 36
12 11 12 14 12 12 13 15 16 16 18 20 20 20 21 23 26 25 27 27 30 31 30 31 31 30 32 33 34 35 35 37 37
10 11 11 14 10 11 13 13 15 15 18 19 17 21 20 23 23 23 26 25 28 29 30 31 31 31 33 34 34 35 37 37 37
9 9 11 13 11 11 14 15 16 16 17 17 15 17 19 20 21 23 25 26 28 28 28 31 31 32 32 34 34 36 37 38 39
7 8 9 11 10 10 14 15 14 14 16 18 12 13 15 17 18 20 23 25 28 30 29 30 29 32 33 33 35 36 38 38 38
6 7 8 9 10 11 14 13 16 17 19 22 24 19 14 16 19 22 24 27 24 27 27 29 30 29 31 32 34 36 37 37 38
5 6 7 9 10 11 11 13 16 17 19 21 22 24 22 22 22 23 21 24 20 24 25 29 29 30 30 32 34 36 35 36 38
4 5 6 8 10 10 12 13 15 16 18 17 20 24 24 29 21 27 26 31 29 26 25 26 28 28 29 31 32 33 35 36 34
6 6 6 7 9 10 11 12 12 14 16 18 15 16 18 24 26 22 27 26 27 29 26 27 26 24 27 29 30 31 35 34 30
9 9 8 9 9 10 10 11 12 13 15 16 18 19 18 17 19 25 25 28 29 29 30 26 25 23 26 27 29 31 32 34 31
Wind_Direction
28 31 28 30 37 43 46 43 37 20 9 6 4 1 356 356 347 346 345 333 332 335 334 329 327 326 326 327 327 326 326 322 319
25 23 19 20 26 32 35 40 44 50 38 12 2 3 359 7 352 352 348 340 341 336 334 332 327 324 325 325 326 324 322 320 318
36 31 24 21 22 27 25 27 31 34 30 14 9 4 354 337 326 359 343 343 344 345 342 337 335 331 326 324 323 323 321 321 318
38 29 25 18 16 18 19 20 23 28 12 5 349 156 342 298 334 344 301 315 336 339 343 344 340 337 334 330 325 321 318 316 315
47 33 31 25 14 14 12 10 3 23 18 354 339 359 349 18 11 350 313 318 324 335 341 338 333 333 332 330 328 325 320 317 315
51 50 45 31 28 17 12 3 358 3 347 344 352 0 7 12 19 2 339 333 332 341 331 337 336 335 334 331 330 327 325 320 316
70 66 60 54 27 21 6 356 354 6 356 356 6 5 4 5 22 7 350 344 346 349 350 348 348 343 341 339 337 332 327 323 321
69 68 54 59 43 41 25 12 9 356 352 358 3 11 9 9 20 13 1 356 356 354 356 354 353 350 346 347 343 342 342 331 324
73 67 69 60 58 39 31 26 12 353 351 6 3 12 16 13 11 12 9 4 3 360 357 352 349 348 349 348 347 344 341 341 337
81 72 71 69 55 50 50 39 40 22 8 14 10 10 16 19 18 14 7 5 4 1 359 353 352 349 350 349 347 344 341 338 335
72 71 71 66 61 71 70 60 43 46 30 20 25 18 19 19 18 15 9 3 1 -0 1 357 355 354 352 349 346 343 340 338 335
65 74 69 61 72 74 67 60 54 50 39 31 30 28 23 18 14 16 12 10 6 1 0 357 357 356 353 350 347 345 343 339 336
66 65 63 52 75 71 64 62 53 50 39 35 36 26 26 16 17 18 15 15 10 8 2 359 357 356 351 349 347 345 341 338 335
60 58 52 46 59 59 51 47 45 43 40 34 38 33 28 23 20 16 12 10 7 7 6 0 359 356 353 350 349 346 341 338 334
46 43 43 38 46 53 39 37 41 42 34 29 40 34 32 29 27 20 13 10 5 2 3 2 1 357 354 353 351 348 345 341 338
29 26 25 29 31 34 24 32 26 25 24 17 13 22 30 27 23 20 12 8 11 8 7 3 360 0 357 356 354 351 348 346 343
9 8 9 10 13 14 20 20 15 17 18 15 14 9 14 11 6 13 18 13 15 9 7 2 1 359 -0 360 357 354 353 350 346
341 352 353 355 357 358 1 6 7 7 8 16 13 6 3 358 14 4 6 2 4 6 6 5 2 2 4 2 360 358 355 351 350
322 324 330 337 344 345 349 353 357 359 359 2 11 12 9 2 360 8 359 3 5 1 5 2 3 8 4 4 2 1 357 356 355
310 313 318 320 327 333 338 343 345 348 349 352 354 357 358 359 357 353 1 359 359 1 360 2 4 7 6 5 2 0 0 358 358